Year,Month,Day,Hour,Minute,Value (Times are PST for temperature in C)
2015,07,04,00,00,20.40
2015,07,04,00,01,20.40
2015,07,04,00,02,20.40
2015,07,04,00,03,20.40
2015,07,04,00,04,20.40
2015,07,04,00,05,20.40
2015,07,04,00,06,20.40
2015,07,04,00,07,20.40
2015,07,04,00,08,20.40
2015,07,04,00,09,20.40
2015,07,04,00,10,20.40
2015,07,04,00,11,20.30
2015,07,04,00,12,20.30
2015,07,04,00,13,20.30
2015,07,04,00,14,20.30
2015,07,04,00,15,20.30
2015,07,04,00,16,20.20
2015,07,04,00,17,20.20
2015,07,04,00,18,20.20
2015,07,04,00,19,20.20
2015,07,04,00,20,20.20
2015,07,04,00,21,20.20
2015,07,04,00,22,20.20
2015,07,04,00,23,20.20
2015,07,04,00,24,20.20
2015,07,04,00,25,20.20
2015,07,04,00,26,20.20
2015,07,04,00,27,20.20
2015,07,04,00,28,20.20
2015,07,04,00,29,20.20
2015,07,04,00,30,20.20
2015,07,04,00,31,20.20
2015,07,04,00,32,20.10
2015,07,04,00,33,20.10
2015,07,04,00,34,20.10
2015,07,04,00,35,20.10
2015,07,04,00,36,20.00
2015,07,04,00,37,19.90
2015,07,04,00,38,19.90
2015,07,04,00,39,19.90
2015,07,04,00,40,19.90
2015,07,04,00,41,19.90
2015,07,04,00,42,19.90
2015,07,04,00,43,19.90
2015,07,04,00,44,19.90
2015,07,04,00,45,19.80
2015,07,04,00,46,19.80
2015,07,04,00,47,19.80
2015,07,04,00,48,19.80
2015,07,04,00,49,19.70
2015,07,04,00,50,19.70
2015,07,04,00,51,19.70
2015,07,04,00,52,19.70
2015,07,04,00,53,19.60
2015,07,04,00,54,19.60
2015,07,04,00,55,19.60
2015,07,04,00,56,19.60
2015,07,04,00,57,19.50
2015,07,04,00,58,19.50
2015,07,04,00,59,19.50
2015,07,04,01,00,19.50
2015,07,04,01,01,19.40
2015,07,04,01,02,19.40
2015,07,04,01,03,19.30
2015,07,04,01,04,19.30
2015,07,04,01,05,19.30
2015,07,04,01,06,19.20
2015,07,04,01,07,19.20
2015,07,04,01,08,19.20
2015,07,04,01,09,19.20
2015,07,04,01,10,19.20
2015,07,04,01,11,19.10
2015,07,04,01,12,19.10
2015,07,04,01,13,19.10
2015,07,04,01,14,19.10
2015,07,04,01,15,19.10
2015,07,04,01,16,19.10
2015,07,04,01,17,19.10
2015,07,04,01,18,19.10
2015,07,04,01,19,19.10
2015,07,04,01,20,19.10
2015,07,04,01,21,19.10
2015,07,04,01,22,19.10
2015,07,04,01,23,19.10
2015,07,04,01,24,19.10
2015,07,04,01,25,19.10
2015,07,04,01,26,19.10
2015,07,04,01,27,19.10
2015,07,04,01,28,19.10
2015,07,04,01,29,18.90
2015,07,04,01,30,18.90
2015,07,04,01,31,18.70
2015,07,04,01,32,18.70
2015,07,04,01,33,18.60
2015,07,04,01,34,18.50
2015,07,04,01,35,18.40
2015,07,04,01,36,18.30
2015,07,04,01,37,18.20
2015,07,04,01,38,18.10
2015,07,04,01,39,18.10
2015,07,04,01,40,18.00
2015,07,04,01,41,17.90
2015,07,04,01,42,17.90
2015,07,04,01,43,17.90
2015,07,04,01,44,17.90
2015,07,04,01,45,17.90
2015,07,04,01,46,17.90
2015,07,04,01,47,17.90
2015,07,04,01,48,17.90
2015,07,04,01,49,17.80
2015,07,04,01,50,17.80
2015,07,04,01,51,17.80
2015,07,04,01,52,17.80
2015,07,04,01,53,17.80
2015,07,04,01,54,17.80
2015,07,04,01,55,17.80
2015,07,04,01,56,17.80
2015,07,04,01,57,17.70
2015,07,04,01,58,17.70
2015,07,04,01,59,17.70
2015,07,04,02,00,17.70
2015,07,04,02,01,17.70
2015,07,04,02,02,17.60
2015,07,04,02,03,17.60
2015,07,04,02,04,17.60
2015,07,04,02,05,17.60
2015,07,04,02,06,17.60
2015,07,04,02,07,17.60
2015,07,04,02,08,17.60
2015,07,04,02,09,17.60
2015,07,04,02,10,17.60
2015,07,04,02,11,17.60
2015,07,04,02,12,17.60
2015,07,04,02,13,17.60
2015,07,04,02,14,17.50
2015,07,04,02,15,17.50
2015,07,04,02,16,17.50
2015,07,04,02,17,17.50
2015,07,04,02,18,17.50
2015,07,04,02,19,17.50
2015,07,04,02,20,17.40
2015,07,04,02,21,17.40
2015,07,04,02,22,17.40
2015,07,04,02,23,17.30
2015,07,04,02,24,17.30
2015,07,04,02,25,17.30
2015,07,04,02,26,17.30
2015,07,04,02,27,17.30
2015,07,04,02,28,17.30
2015,07,04,02,29,17.30
2015,07,04,02,30,17.30
2015,07,04,02,31,17.30
2015,07,04,02,32,17.30
2015,07,04,02,33,17.30
2015,07,04,02,34,17.30
2015,07,04,02,35,17.30
2015,07,04,02,36,17.30
2015,07,04,02,37,17.30
2015,07,04,02,38,17.30
2015,07,04,02,39,17.30
2015,07,04,02,40,17.20
2015,07,04,02,41,17.20
2015,07,04,02,42,17.20
2015,07,04,02,43,17.20
2015,07,04,02,44,17.20
2015,07,04,02,45,17.20
2015,07,04,02,46,17.20
2015,07,04,02,47,17.20
2015,07,04,02,48,17.20
2015,07,04,02,49,17.10
2015,07,04,02,50,17.10
2015,07,04,02,51,17.10
2015,07,04,02,52,17.10
2015,07,04,02,53,17.10
2015,07,04,02,54,17.10
2015,07,04,02,55,17.00
2015,07,04,02,56,17.00
2015,07,04,02,57,17.00
2015,07,04,02,58,17.00
2015,07,04,02,59,16.90
2015,07,04,03,00,16.90
2015,07,04,03,01,16.90
2015,07,04,03,02,16.90
2015,07,04,03,03,16.80
2015,07,04,03,04,16.80
2015,07,04,03,05,16.80
2015,07,04,03,06,16.70
2015,07,04,03,07,16.70
2015,07,04,03,08,16.70
2015,07,04,03,09,16.70
2015,07,04,03,10,16.70
2015,07,04,03,11,16.60
2015,07,04,03,12,16.60
2015,07,04,03,13,16.60
2015,07,04,03,14,16.60
2015,07,04,03,15,16.60
2015,07,04,03,16,16.50
2015,07,04,03,17,16.40
2015,07,04,03,18,16.40
2015,07,04,03,19,16.40
2015,07,04,03,20,16.40
2015,07,04,03,21,16.40
2015,07,04,03,22,16.40
2015,07,04,03,23,16.40
2015,07,04,03,24,16.40
2015,07,04,03,25,16.40
2015,07,04,03,26,16.40
2015,07,04,03,27,16.40
2015,07,04,03,28,16.40
2015,07,04,03,29,16.40
2015,07,04,03,30,16.30
2015,07,04,03,31,16.30
2015,07,04,03,32,16.30
2015,07,04,03,33,16.30
2015,07,04,03,34,16.30
2015,07,04,03,35,16.30
2015,07,04,03,36,16.30
2015,07,04,03,37,16.30
2015,07,04,03,38,16.30
2015,07,04,03,39,16.30
2015,07,04,03,40,16.30
2015,07,04,03,41,16.30
2015,07,04,03,42,16.30
2015,07,04,03,43,16.20
2015,07,04,03,44,16.20
2015,07,04,03,45,16.20
2015,07,04,03,46,16.20
2015,07,04,03,47,16.20
2015,07,04,03,48,16.20
2015,07,04,03,49,16.20
2015,07,04,03,50,16.20
2015,07,04,03,51,16.20
2015,07,04,03,52,16.20
2015,07,04,03,53,16.20
2015,07,04,03,54,16.20
2015,07,04,03,55,16.20
2015,07,04,03,56,16.10
2015,07,04,03,57,16.10
2015,07,04,03,58,16.10
2015,07,04,03,59,16.10
2015,07,04,04,00,16.10
2015,07,04,04,01,16.10
2015,07,04,04,02,16.10
2015,07,04,04,03,16.10
2015,07,04,04,04,16.10
2015,07,04,04,05,16.10
2015,07,04,04,06,16.10
2015,07,04,04,07,16.10
2015,07,04,04,08,16.10
2015,07,04,04,09,16.10
2015,07,04,04,10,16.10
2015,07,04,04,11,16.10
2015,07,04,04,12,16.10
2015,07,04,04,13,16.10
2015,07,04,04,14,16.10
2015,07,04,04,15,16.10
2015,07,04,04,16,16.10
2015,07,04,04,17,16.10
2015,07,04,04,18,16.10
2015,07,04,04,19,16.10
2015,07,04,04,20,16.10
2015,07,04,04,21,16.10
2015,07,04,04,22,16.10
2015,07,04,04,23,16.10
2015,07,04,04,24,16.10
2015,07,04,04,25,16.10
2015,07,04,04,26,16.10
2015,07,04,04,27,16.10
2015,07,04,04,28,16.10
2015,07,04,04,29,16.10
2015,07,04,04,30,16.10
2015,07,04,04,31,16.10
2015,07,04,04,32,16.10
2015,07,04,04,33,16.10
2015,07,04,04,34,16.10
2015,07,04,04,35,16.00
2015,07,04,04,36,15.90
2015,07,04,04,37,15.90
2015,07,04,04,38,15.90
2015,07,04,04,39,15.90
2015,07,04,04,40,15.90
2015,07,04,04,41,15.90
2015,07,04,04,42,15.80
2015,07,04,04,43,15.80
2015,07,04,04,44,15.80
2015,07,04,04,45,15.80
2015,07,04,04,46,15.80
2015,07,04,04,47,15.80
2015,07,04,04,48,15.80
2015,07,04,04,49,15.80
2015,07,04,04,50,15.80
2015,07,04,04,51,15.80
2015,07,04,04,52,15.80
2015,07,04,04,53,15.80
2015,07,04,04,54,15.70
2015,07,04,04,55,15.70
2015,07,04,04,56,15.70
2015,07,04,04,57,15.70
2015,07,04,04,58,15.70
2015,07,04,04,59,15.70
2015,07,04,05,00,15.70
2015,07,04,05,01,15.60
2015,07,04,05,02,15.60
2015,07,04,05,03,15.60
2015,07,04,05,04,15.60
2015,07,04,05,05,15.60
2015,07,04,05,06,15.60
2015,07,04,05,07,15.60
2015,07,04,05,08,15.60
2015,07,04,05,09,15.60
2015,07,04,05,10,15.60
2015,07,04,05,11,15.60
2015,07,04,05,12,15.60
2015,07,04,05,13,15.60
2015,07,04,05,14,15.60
2015,07,04,05,15,15.60
2015,07,04,05,16,15.60
2015,07,04,05,17,15.60
2015,07,04,05,18,15.60
2015,07,04,05,19,15.60
2015,07,04,05,20,15.60
2015,07,04,05,21,15.60
2015,07,04,05,22,15.60
2015,07,04,05,23,15.60
2015,07,04,05,24,15.60
2015,07,04,05,25,15.60
2015,07,04,05,26,15.60
2015,07,04,05,27,15.60
2015,07,04,05,28,15.60
2015,07,04,05,29,15.60
2015,07,04,05,30,15.60
2015,07,04,05,31,15.60
2015,07,04,05,32,15.60
2015,07,04,05,33,15.60
2015,07,04,05,34,15.60
2015,07,04,05,35,15.60
2015,07,04,05,36,15.60
2015,07,04,05,37,15.70
2015,07,04,05,38,15.70
2015,07,04,05,39,15.70
2015,07,04,05,40,15.70
2015,07,04,05,41,15.80
2015,07,04,05,42,15.80
2015,07,04,05,43,15.80
2015,07,04,05,44,15.80
2015,07,04,05,45,15.80
2015,07,04,05,46,15.80
2015,07,04,05,47,15.80
2015,07,04,05,48,15.80
2015,07,04,05,49,15.80
2015,07,04,05,50,15.80
2015,07,04,05,51,15.80
2015,07,04,05,52,15.70
2015,07,04,05,53,15.70
2015,07,04,05,54,15.70
2015,07,04,05,55,15.70
2015,07,04,05,56,15.60
2015,07,04,05,57,15.60
2015,07,04,05,58,15.60
2015,07,04,05,59,15.60
2015,07,04,06,00,15.60
2015,07,04,06,01,15.60
2015,07,04,06,02,15.60
2015,07,04,06,03,15.60
2015,07,04,06,04,15.60
2015,07,04,06,05,15.60
2015,07,04,06,06,15.60
2015,07,04,06,07,15.70
2015,07,04,06,08,15.70
2015,07,04,06,09,15.70
2015,07,04,06,10,15.80
2015,07,04,06,11,15.80
2015,07,04,06,12,15.80
2015,07,04,06,13,15.80
2015,07,04,06,14,15.90
2015,07,04,06,15,15.90
2015,07,04,06,16,16.00
2015,07,04,06,17,16.10
2015,07,04,06,18,16.10
2015,07,04,06,19,16.10
2015,07,04,06,20,16.10
2015,07,04,06,21,16.20
2015,07,04,06,22,16.20
2015,07,04,06,23,16.20
2015,07,04,06,24,16.30
2015,07,04,06,25,16.30
2015,07,04,06,26,16.30
2015,07,04,06,27,16.40
2015,07,04,06,28,16.40
2015,07,04,06,29,16.40
2015,07,04,06,30,16.50
2015,07,04,06,31,16.60
2015,07,04,06,32,16.70
2015,07,04,06,33,16.70
2015,07,04,06,34,16.70
2015,07,04,06,35,16.80
2015,07,04,06,36,16.80
2015,07,04,06,37,16.80
2015,07,04,06,38,16.80
2015,07,04,06,39,16.90
2015,07,04,06,40,16.90
2015,07,04,06,41,16.90
2015,07,04,06,42,17.00
2015,07,04,06,43,17.00
2015,07,04,06,44,17.10
2015,07,04,06,45,17.10
2015,07,04,06,46,17.10
2015,07,04,06,47,17.20
2015,07,04,06,48,17.20
2015,07,04,06,49,17.20
2015,07,04,06,50,17.30
2015,07,04,06,51,17.30
2015,07,04,06,52,17.30
2015,07,04,06,53,17.30
2015,07,04,06,54,17.30
2015,07,04,06,55,17.30
2015,07,04,06,56,17.30
2015,07,04,06,57,17.30
2015,07,04,06,58,17.30
2015,07,04,06,59,17.30
2015,07,04,07,00,17.30
2015,07,04,07,01,17.40
2015,07,04,07,02,17.40
2015,07,04,07,03,17.50
2015,07,04,07,04,17.60
2015,07,04,07,05,17.70
2015,07,04,07,06,17.70
2015,07,04,07,07,17.80
2015,07,04,07,08,17.90
2015,07,04,07,09,17.90
2015,07,04,07,10,18.00
2015,07,04,07,11,18.10
2015,07,04,07,12,18.20
2015,07,04,07,13,18.30
2015,07,04,07,14,18.30
2015,07,04,07,15,18.40
2015,07,04,07,16,18.50
2015,07,04,07,17,18.60
2015,07,04,07,18,18.60
2015,07,04,07,19,18.70
2015,07,04,07,20,18.70
2015,07,04,07,21,18.80
2015,07,04,07,22,18.80
2015,07,04,07,23,18.80
2015,07,04,07,24,18.80
2015,07,04,07,25,18.80
2015,07,04,07,26,18.90
2015,07,04,07,27,18.90
2015,07,04,07,28,18.90
2015,07,04,07,29,18.90
2015,07,04,07,30,18.90
2015,07,04,07,31,19.10
2015,07,04,07,32,19.10
2015,07,04,07,33,19.30
2015,07,04,07,34,19.40
2015,07,04,07,35,19.40
2015,07,04,07,36,19.50
2015,07,04,07,37,19.50
2015,07,04,07,38,19.60
2015,07,04,07,39,19.60
2015,07,04,07,40,19.70
2015,07,04,07,41,19.80
2015,07,04,07,42,19.80
2015,07,04,07,43,19.90
2015,07,04,07,44,19.90
2015,07,04,07,45,19.90
2015,07,04,07,46,20.00
2015,07,04,07,47,20.10
2015,07,04,07,48,20.10
2015,07,04,07,49,20.20
2015,07,04,07,50,20.30
2015,07,04,07,51,20.40
2015,07,04,07,52,20.50
2015,07,04,07,53,20.60
2015,07,04,07,54,20.70
2015,07,04,07,55,20.80
2015,07,04,07,56,20.90
2015,07,04,07,57,21.00
2015,07,04,07,58,21.10
2015,07,04,07,59,21.10
2015,07,04,08,00,21.30
2015,07,04,08,01,21.40
2015,07,04,08,02,21.40
2015,07,04,08,03,21.40
2015,07,04,08,04,21.40
2015,07,04,08,05,21.30
2015,07,04,08,06,21.30
2015,07,04,08,07,21.20
2015,07,04,08,08,21.20
2015,07,04,08,09,21.20
2015,07,04,08,10,21.20
2015,07,04,08,11,21.20
2015,07,04,08,12,21.20
2015,07,04,08,13,21.20
2015,07,04,08,14,21.10
2015,07,04,08,15,21.10
2015,07,04,08,16,21.10
2015,07,04,08,17,21.10
2015,07,04,08,18,21.10
2015,07,04,08,19,21.10
2015,07,04,08,20,21.10
2015,07,04,08,21,21.10
2015,07,04,08,22,21.10
2015,07,04,08,23,21.00
2015,07,04,08,24,21.00
2015,07,04,08,25,21.00
2015,07,04,08,26,21.00
2015,07,04,08,27,21.00
2015,07,04,08,28,21.00
2015,07,04,08,29,21.10
2015,07,04,08,30,21.10
2015,07,04,08,31,21.10
2015,07,04,08,32,21.20
2015,07,04,08,33,21.30
2015,07,04,08,34,21.30
2015,07,04,08,35,21.30
2015,07,04,08,36,21.30
2015,07,04,08,37,21.30
2015,07,04,08,38,21.40
2015,07,04,08,39,21.50
2015,07,04,08,40,21.60
2015,07,04,08,41,21.60
2015,07,04,08,42,21.60
2015,07,04,08,43,21.60
2015,07,04,08,44,21.70
2015,07,04,08,45,21.70
2015,07,04,08,46,21.80
2015,07,04,08,47,21.80
2015,07,04,08,48,21.90
2015,07,04,08,49,21.90
2015,07,04,08,50,21.80
2015,07,04,08,51,21.80
2015,07,04,08,52,21.80
2015,07,04,08,53,21.70
2015,07,04,08,54,21.60
2015,07,04,08,55,21.60
2015,07,04,08,56,21.60
2015,07,04,08,57,21.50
2015,07,04,08,58,21.40
2015,07,04,08,59,21.40
2015,07,04,09,00,21.40
2015,07,04,09,01,21.40
2015,07,04,09,02,21.30
2015,07,04,09,03,21.30
2015,07,04,09,04,21.40
2015,07,04,09,05,21.40
2015,07,04,09,06,21.40
2015,07,04,09,07,21.30
2015,07,04,09,08,21.30
2015,07,04,09,09,21.30
2015,07,04,09,10,21.30
2015,07,04,09,11,21.30
2015,07,04,09,12,21.30
2015,07,04,09,13,21.30
2015,07,04,09,14,21.30
2015,07,04,09,15,21.30
2015,07,04,09,16,21.30
2015,07,04,09,17,21.40
2015,07,04,09,18,21.30
2015,07,04,09,19,21.40
2015,07,04,09,20,21.40
2015,07,04,09,21,21.40
2015,07,04,09,22,21.50
2015,07,04,09,23,21.60
2015,07,04,09,24,21.60
2015,07,04,09,25,21.60
2015,07,04,09,26,21.60
2015,07,04,09,27,21.70
2015,07,04,09,28,21.60
2015,07,04,09,29,21.60
2015,07,04,09,30,21.60
2015,07,04,09,31,21.50
2015,07,04,09,32,21.50
2015,07,04,09,33,21.40
2015,07,04,09,34,21.30
2015,07,04,09,35,21.30
2015,07,04,09,36,21.40
2015,07,04,09,37,21.40
2015,07,04,09,38,21.40
2015,07,04,09,39,21.40
2015,07,04,09,40,21.30
2015,07,04,09,41,21.30
2015,07,04,09,42,21.30
2015,07,04,09,43,21.30
2015,07,04,09,44,21.40
2015,07,04,09,45,21.60
2015,07,04,09,46,21.60
2015,07,04,09,47,21.60
2015,07,04,09,48,21.60
2015,07,04,09,49,21.60
2015,07,04,09,50,21.60
2015,07,04,09,51,21.60
2015,07,04,09,52,21.60
2015,07,04,09,53,21.60
2015,07,04,09,54,21.60
2015,07,04,09,55,21.60
2015,07,04,09,56,21.60
2015,07,04,09,57,21.60
2015,07,04,09,58,21.70
2015,07,04,09,59,21.70
2015,07,04,10,00,21.70
2015,07,04,10,01,21.70
2015,07,04,10,02,21.70
2015,07,04,10,03,21.70
2015,07,04,10,04,21.60
2015,07,04,10,05,21.60
2015,07,04,10,06,21.60
2015,07,04,10,07,21.60
2015,07,04,10,08,21.50
2015,07,04,10,09,21.40
2015,07,04,10,10,21.40
2015,07,04,10,11,21.40
2015,07,04,10,12,21.50
2015,07,04,10,13,21.60
2015,07,04,10,14,21.50
2015,07,04,10,15,21.40
2015,07,04,10,16,21.40
2015,07,04,10,17,21.40
2015,07,04,10,18,21.40
2015,07,04,10,19,21.40
2015,07,04,10,20,21.50
2015,07,04,10,21,21.60
2015,07,04,10,22,21.60
2015,07,04,10,23,21.60
2015,07,04,10,24,21.60
2015,07,04,10,25,21.70
2015,07,04,10,26,21.70
2015,07,04,10,27,21.70
2015,07,04,10,28,21.70
2015,07,04,10,29,21.70
2015,07,04,10,30,21.80
2015,07,04,10,31,21.90
2015,07,04,10,32,21.90
2015,07,04,10,33,22.00
2015,07,04,10,34,22.10
2015,07,04,10,35,22.20
2015,07,04,10,36,22.30
2015,07,04,10,37,22.40
2015,07,04,10,38,22.40
2015,07,04,10,39,22.40
2015,07,04,10,40,22.40
2015,07,04,10,41,22.30
2015,07,04,10,42,22.30
2015,07,04,10,43,22.30
2015,07,04,10,44,22.30
2015,07,04,10,45,22.40
2015,07,04,10,46,22.40
2015,07,04,10,47,22.40
2015,07,04,10,48,22.40
2015,07,04,10,49,22.40
2015,07,04,10,50,22.40
2015,07,04,10,51,22.40
2015,07,04,10,52,22.40
2015,07,04,10,53,22.40
2015,07,04,10,54,22.40
2015,07,04,10,55,22.40
2015,07,04,10,56,22.40
2015,07,04,10,57,22.40
2015,07,04,10,58,22.40
2015,07,04,10,59,22.40
2015,07,04,11,00,22.40
2015,07,04,11,01,22.40
2015,07,04,11,02,22.50
2015,07,04,11,03,22.50
2015,07,04,11,04,22.40
2015,07,04,11,05,22.40
2015,07,04,11,06,22.50
2015,07,04,11,07,22.50
2015,07,04,11,08,22.60
2015,07,04,11,09,22.70
2015,07,04,11,10,22.80
2015,07,04,11,11,22.80
2015,07,04,11,12,22.90
2015,07,04,11,13,22.80
2015,07,04,11,14,22.70
2015,07,04,11,15,22.60
2015,07,04,11,16,22.50
2015,07,04,11,17,22.50
2015,07,04,11,18,22.50
2015,07,04,11,19,22.50
2015,07,04,11,20,22.50
2015,07,04,11,21,22.50
2015,07,04,11,22,22.30
2015,07,04,11,23,22.30
2015,07,04,11,24,22.20
2015,07,04,11,25,22.20
2015,07,04,11,26,22.10
2015,07,04,11,27,22.10
2015,07,04,11,28,22.10
2015,07,04,11,29,22.10
2015,07,04,11,30,22.10
2015,07,04,11,31,22.20
2015,07,04,11,32,22.10
2015,07,04,11,33,22.10
2015,07,04,11,34,22.10
2015,07,04,11,35,22.10
2015,07,04,11,36,22.10
2015,07,04,11,37,22.30
2015,07,04,11,38,22.40
2015,07,04,11,39,22.50
2015,07,04,11,40,22.50
2015,07,04,11,41,22.50
2015,07,04,11,42,22.60
2015,07,04,11,43,22.70
2015,07,04,11,44,22.80
2015,07,04,11,45,22.80
2015,07,04,11,46,22.80
2015,07,04,11,47,22.80
2015,07,04,11,48,22.70
2015,07,04,11,49,22.70
2015,07,04,11,50,22.70
2015,07,04,11,51,22.90
2015,07,04,11,52,22.80
2015,07,04,11,53,22.80
2015,07,04,11,54,22.80
2015,07,04,11,55,22.90
2015,07,04,11,56,23.00
2015,07,04,11,57,23.10
2015,07,04,11,58,23.00
2015,07,04,11,59,22.90
2015,07,04,12,00,23.00
2015,07,04,12,01,23.20
2015,07,04,12,02,23.30
2015,07,04,12,03,23.40
2015,07,04,12,04,23.40
2015,07,04,12,05,23.60
2015,07,04,12,06,23.70
2015,07,04,12,07,23.70
2015,07,04,12,08,23.70
2015,07,04,12,09,23.90
2015,07,04,12,10,23.90
2015,07,04,12,11,24.00
2015,07,04,12,12,24.10
2015,07,04,12,13,24.10
2015,07,04,12,14,24.10
2015,07,04,12,15,24.20
2015,07,04,12,16,24.30
2015,07,04,12,17,24.30
2015,07,04,12,18,24.40
2015,07,04,12,19,24.50
2015,07,04,12,20,24.50
2015,07,04,12,21,24.60
2015,07,04,12,22,24.70
2015,07,04,12,23,24.70
2015,07,04,12,24,24.70
2015,07,04,12,25,24.60
2015,07,04,12,26,24.60
2015,07,04,12,27,24.50
2015,07,04,12,28,24.50
2015,07,04,12,29,24.60
2015,07,04,12,30,24.70
2015,07,04,12,31,24.80
2015,07,04,12,32,24.90
2015,07,04,12,33,25.00
2015,07,04,12,34,25.10
2015,07,04,12,35,25.10
2015,07,04,12,36,25.10
2015,07,04,12,37,25.20
2015,07,04,12,38,25.20
2015,07,04,12,39,25.20
2015,07,04,12,40,25.20
2015,07,04,12,41,25.20
2015,07,04,12,42,25.20
2015,07,04,12,43,25.20
2015,07,04,12,44,25.20
2015,07,04,12,45,25.20
2015,07,04,12,46,25.20
2015,07,04,12,47,25.30
2015,07,04,12,48,25.40
2015,07,04,12,49,25.50
2015,07,04,12,50,25.70
2015,07,04,12,51,25.80
2015,07,04,12,52,25.80
2015,07,04,12,53,25.70
2015,07,04,12,54,25.80
2015,07,04,12,55,26.00
2015,07,04,12,56,26.00
2015,07,04,12,57,25.90
2015,07,04,12,58,25.70
2015,07,04,12,59,25.60
2015,07,04,13,00,25.70
2015,07,04,13,01,25.70
2015,07,04,13,02,25.70
2015,07,04,13,03,25.70
2015,07,04,13,04,25.70
2015,07,04,13,05,25.70
2015,07,04,13,06,25.70
2015,07,04,13,07,25.80
2015,07,04,13,08,25.80
2015,07,04,13,09,25.80
2015,07,04,13,10,25.80
2015,07,04,13,11,25.70
2015,07,04,13,12,25.60
2015,07,04,13,13,25.50
2015,07,04,13,14,25.50
2015,07,04,13,15,25.50
2015,07,04,13,16,25.40
2015,07,04,13,17,25.50
2015,07,04,13,18,25.60
2015,07,04,13,19,25.80
2015,07,04,13,20,25.90
2015,07,04,13,21,26.00
2015,07,04,13,22,26.00
2015,07,04,13,23,26.00
2015,07,04,13,24,26.00
2015,07,04,13,25,26.00
2015,07,04,13,26,25.90
2015,07,04,13,27,25.90
2015,07,04,13,28,26.00
2015,07,04,13,29,26.00
2015,07,04,13,30,26.10
2015,07,04,13,31,26.30
2015,07,04,13,32,26.40
2015,07,04,13,33,26.50
2015,07,04,13,34,26.60
2015,07,04,13,35,26.60
2015,07,04,13,36,26.60
2015,07,04,13,37,26.60
2015,07,04,13,38,26.70
2015,07,04,13,39,26.70
2015,07,04,13,40,26.60
2015,07,04,13,41,26.60
2015,07,04,13,42,26.60
2015,07,04,13,43,26.60
2015,07,04,13,44,26.60
2015,07,04,13,45,26.50
2015,07,04,13,46,26.30
2015,07,04,13,47,26.30
2015,07,04,13,48,26.30
2015,07,04,13,49,26.40
2015,07,04,13,50,26.40
2015,07,04,13,51,26.30
2015,07,04,13,52,26.40
2015,07,04,13,53,26.50
2015,07,04,13,54,26.60
2015,07,04,13,55,26.40
2015,07,04,13,56,26.40
2015,07,04,13,57,26.30
2015,07,04,13,58,26.20
2015,07,04,13,59,26.10
2015,07,04,14,00,26.10
2015,07,04,14,01,26.10
2015,07,04,14,02,26.20
2015,07,04,14,03,26.30
2015,07,04,14,04,26.30
2015,07,04,14,05,26.30
2015,07,04,14,06,26.20
2015,07,04,14,07,26.20
2015,07,04,14,08,26.10
2015,07,04,14,09,26.00
2015,07,04,14,10,25.90
2015,07,04,14,11,25.90
2015,07,04,14,12,25.90
2015,07,04,14,13,25.90
2015,07,04,14,14,25.80
2015,07,04,14,15,25.70
2015,07,04,14,16,25.80
2015,07,04,14,17,25.70
2015,07,04,14,18,25.50
2015,07,04,14,19,25.40
2015,07,04,14,20,25.40
2015,07,04,14,21,25.30
2015,07,04,14,22,25.30
2015,07,04,14,23,25.10
2015,07,04,14,24,25.10
2015,07,04,14,25,25.10
2015,07,04,14,26,25.10
2015,07,04,14,27,25.20
2015,07,04,14,28,25.30
2015,07,04,14,29,25.50
2015,07,04,14,30,25.60
2015,07,04,14,31,25.50
2015,07,04,14,32,25.60
2015,07,04,14,33,25.60
2015,07,04,14,34,25.50
2015,07,04,14,35,25.40
2015,07,04,14,36,25.50
2015,07,04,14,37,25.60
2015,07,04,14,38,25.70
2015,07,04,14,39,25.90
2015,07,04,14,40,26.00
2015,07,04,14,41,26.20
2015,07,04,14,42,26.10
2015,07,04,14,43,25.90
2015,07,04,14,44,25.80
2015,07,04,14,45,25.80
2015,07,04,14,46,25.70
2015,07,04,14,47,25.70
2015,07,04,14,48,25.70
2015,07,04,14,49,25.60
2015,07,04,14,50,25.50
2015,07,04,14,51,25.50
2015,07,04,14,52,25.60
2015,07,04,14,53,25.70
2015,07,04,14,54,25.80
2015,07,04,14,55,25.90
2015,07,04,14,56,25.80
2015,07,04,14,57,25.80
2015,07,04,14,58,25.60
2015,07,04,14,59,25.50
2015,07,04,15,00,25.40
2015,07,04,15,01,25.40
2015,07,04,15,02,25.30
2015,07,04,15,03,25.40
2015,07,04,15,04,25.50
2015,07,04,15,05,25.50
2015,07,04,15,06,25.50
2015,07,04,15,07,25.50
2015,07,04,15,08,25.40
2015,07,04,15,09,25.30
2015,07,04,15,10,25.30
2015,07,04,15,11,25.40
2015,07,04,15,12,25.50
2015,07,04,15,13,25.50
2015,07,04,15,14,25.60
2015,07,04,15,15,25.80
2015,07,04,15,16,25.80
2015,07,04,15,17,25.90
2015,07,04,15,18,25.90
2015,07,04,15,19,25.90
2015,07,04,15,20,25.80
2015,07,04,15,21,25.60
2015,07,04,15,22,25.50
2015,07,04,15,23,25.40
2015,07,04,15,24,25.20
2015,07,04,15,25,25.20
2015,07,04,15,26,25.10
2015,07,04,15,27,25.00
2015,07,04,15,28,25.00
2015,07,04,15,29,25.00
2015,07,04,15,30,24.90
2015,07,04,15,31,24.90
2015,07,04,15,32,24.80
2015,07,04,15,33,24.70
2015,07,04,15,34,24.80
2015,07,04,15,35,25.00
2015,07,04,15,36,25.20
2015,07,04,15,37,25.30
2015,07,04,15,38,25.20
2015,07,04,15,39,25.20
2015,07,04,15,40,25.20
2015,07,04,15,41,25.30
2015,07,04,15,42,25.40
2015,07,04,15,43,25.40
2015,07,04,15,44,25.50
2015,07,04,15,45,25.60
2015,07,04,15,46,25.60
2015,07,04,15,47,25.70
2015,07,04,15,48,25.70
2015,07,04,15,49,25.70
2015,07,04,15,50,25.70
2015,07,04,15,51,25.80
2015,07,04,15,52,25.80
2015,07,04,15,53,25.70
2015,07,04,15,54,25.60
2015,07,04,15,55,25.70
2015,07,04,15,56,25.70
2015,07,04,15,57,25.80
2015,07,04,15,58,25.80
2015,07,04,15,59,25.80
2015,07,04,16,00,25.90
2015,07,04,16,01,25.90
2015,07,04,16,02,25.80
2015,07,04,16,03,25.70
2015,07,04,16,04,25.60
2015,07,04,16,05,25.60
2015,07,04,16,06,25.60
2015,07,04,16,07,25.50
2015,07,04,16,08,25.20
2015,07,04,16,09,25.10
2015,07,04,16,10,25.20
2015,07,04,16,11,25.30
2015,07,04,16,12,25.40
2015,07,04,16,13,25.40
2015,07,04,16,14,25.40
2015,07,04,16,15,25.30
2015,07,04,16,16,25.20
2015,07,04,16,17,25.10
2015,07,04,16,18,25.00
2015,07,04,16,19,25.00
2015,07,04,16,20,25.20
2015,07,04,16,21,25.40
2015,07,04,16,22,25.40
2015,07,04,16,23,25.30
2015,07,04,16,24,25.40
2015,07,04,16,25,25.60
2015,07,04,16,26,25.50
2015,07,04,16,27,25.50
2015,07,04,16,28,25.40
2015,07,04,16,29,25.20
2015,07,04,16,30,25.20
2015,07,04,16,31,25.30
2015,07,04,16,32,25.40
2015,07,04,16,33,25.40
2015,07,04,16,34,25.40
2015,07,04,16,35,25.30
2015,07,04,16,36,25.30
2015,07,04,16,37,25.30
2015,07,04,16,38,25.30
2015,07,04,16,39,25.30
2015,07,04,16,40,25.30
2015,07,04,16,41,25.30
2015,07,04,16,42,25.40
2015,07,04,16,43,25.50
2015,07,04,16,44,25.60
2015,07,04,16,45,25.70
2015,07,04,16,46,25.70
2015,07,04,16,47,25.60
2015,07,04,16,48,25.70
2015,07,04,16,49,25.80
2015,07,04,16,50,25.90
2015,07,04,16,51,26.00
2015,07,04,16,52,26.00
2015,07,04,16,53,25.90
2015,07,04,16,54,26.00
2015,07,04,16,55,26.10
2015,07,04,16,56,26.10
2015,07,04,16,57,26.20
2015,07,04,16,58,26.20
2015,07,04,16,59,26.10
2015,07,04,17,00,26.10
2015,07,04,17,01,26.10
2015,07,04,17,02,26.00
2015,07,04,17,03,25.90
2015,07,04,17,04,25.90
2015,07,04,17,05,25.90
2015,07,04,17,06,25.90
2015,07,04,17,07,25.80
2015,07,04,17,08,25.90
2015,07,04,17,09,26.00
2015,07,04,17,10,26.00
2015,07,04,17,11,26.00
2015,07,04,17,12,26.20
2015,07,04,17,13,26.10
2015,07,04,17,14,26.10
2015,07,04,17,15,26.00
2015,07,04,17,16,26.10
2015,07,04,17,17,26.10
2015,07,04,17,18,26.10
2015,07,04,17,19,26.00